Location: Glendale
(37.4556°N, 88.6714°W)
Time: 19:47:59
(UTC+00:00)

Cosmos 2237 Rocket - Pass Details

Date: 08 December 2019
Orbit: 836 x 849 km, 71.0° (Epoch: 24 January)

Event Time Altitude Azimuth Distance (km) Brightness Sun altitude
Rises 01:01:34 0° 241° (WSW) 3,402 6.4 -28.1°
Reaches altitude 10° 01:04:39 10° 258° (WSW) 2,470 5.6 -28.7°
Maximum altitude 01:08:48 20° 305° (NW) 1,844 4.4 -29.5°
Enters shadow 01:12:56 10° 352° (N) 2,471 4.6 -30.3°
